User: anonymous   Login
Location: Wildcat Hills Observatory
(41.6350°N, 103.6812°W)
Time: 17:44:07
(UTC-06:00)
Language:

Cosmos 1634 Rocket - Orbit

View from above orbital plane
View from above orbital plane
View from above satellite
View from above satellite

Ground track
Ground track

The orbit data is extracted from the following two-line orbital elements,

1 15598U 85022B   14304.07218638  .00000025  00000-0  99280-5 0  7664
2 15598 082.9352 100.7255 0020950 273.5806 224.4025 13.76491471488378
Epoch (UTC): 31 October 2014 01:43:56
Eccentricity: 0.0020950
inclination: 82.9352°
perigee height: 961 km
apogee height: 992 km
right ascension of ascending node: 100.7255°
argument of perigee: 273.5806°
revolutions per day: 13.76491471
mean anomaly at epoch: 224.4025°
orbit number at epoch: 48837

The dashed part of the orbit path shows where the satellite is in the earth's shadow,  

DLR